Theta_e
307 307 307 307 307 304 299 289 287 298 298 286 279 278 286 292 291 293 291 290 288 285 285 283 283 284 288 292 292 286 289 284 280 283 287 289 285 283 284 279 278 280 277 278
308 307 307 306 307 304 299 292 291 298 293 277 276 284 288 290 290 290 290 288 289 288 285 282 285 287 292 293 291 287 288 281 276 279 284 288 284 287 285 285 284 280 277 279
308 307 307 308 307 305 298 291 284 287 287 285 282 285 285 286 292 291 291 289 289 288 284 286 283 285 290 292 292 297 293 284 279 274 279 284 282 285 286 285 280 281 283 285
309 308 307 308 307 304 293 287 282 290 279 281 282 287 287 286 286 292 291 287 288 287 283 284 283 286 288 291 293 290 289 283 285 285 286 286 285 285 286 284 285 283 285 286
308 308 308 308 307 303 291 283 285 287 283 285 287 287 286 287 288 289 287 287 289 290 285 285 283 286 287 286 289 289 290 283 283 282 285 285 284 286 287 287 287 286 287 286
308 308 308 308 307 301 293 294 294 290 285 282 280 281 287 287 288 291 292 291 289 287 288 291 291 292 291 291 289 287 288 285 283 276 284 284 278 284 285 287 288 288 283 288
309 308 308 308 307 304 298 296 294 288 282 283 282 286 287 287 289 287 291 291 289 292 295 292 292 289 289 289 289 290 287 283 284 278 278 273 284 294 294 291 289 291 291 292
308 307 307 307 307 307 300 299 295 290 284 287 285 287 287 288 291 290 291 291 294 293 288 284 283 284 287 290 290 288 289 286 282 277 276 282 287 291 291 289 288 294 295 299
306 305 305 306 307 307 304 300 300 294 286 285 290 286 286 284 287 290 292 293 293 288 282 282 279 278 284 283 287 293 289 289 283 281 277 275 285 289 293 293 286 297 299 299
304 305 305 306 306 307 304 301 301 296 288 291 290 287 287 289 289 287 291 292 288 286 280 280 280 281 287 282 282 284 285 284 280 281 279 284 289 292 293 284 286 297 300 300
304 303 304 305 305 306 304 301 302 297 292 292 294 293 289 290 289 287 291 289 286 283 280 282 282 281 285 285 287 285 283 283 283 283 281 279 294 290 285 289 293 298 300 301
303 303 303 302 304 306 305 297 302 303 295 293 298 298 298 296 295 292 292 291 291 291 280 282 283 281 286 285 282 291 283 287 285 284 285 293 296 290 292 295 296 299 299 302
301 302 303 303 302 304 305 301 302 298 293 293 289 288 294 296 297 299 289 293 295 292 293 287 288 284 287 284 286 288 289 293 289 289 292 294 296 298 298 298 298 301 301 302
300 301 302 303 303 303 303 299 302 298 294 286 287 296 294 299 297 295 297 297 296 294 294 289 288 286 291 288 289 289 288 290 290 290 293 294 297 297 299 299 301 301 301 303
301 302 302 302 302 303 302 301 301 301 294 288 289 293 295 297 297 298 297 297 295 293 290 289 288 291 290 293 291 286 290 289 289 288 294 294 295 298 300 299 300 301 301 303
301 302 302 302 302 302 300 293 300 302 300 291 285 291 295 296 297 297 297 297 296 294 291 290 293 291 293 289 286 289 291 293 293 292 297 298 298 300 301 300 302 302 303 304
301 303 303 302 304 301 295 293 300 303 301 292 289 285 293 296 295 297 297 298 297 295 294 293 290 289 294 290 284 290 292 294 296 297 299 297 299 298 301 302 303 304 305 306
303 302 303 304 305 303 298 301 303 304 298 296 289 285 285 295 291 292 298 296 297 296 293 294 291 291 288 287 288 291 293 294 296 298 300 299 302 302 302 303 304 303 304 305
301 302 305 299 299 296 300 305 307 303 299 292 290 285 278 292 295 297 297 298 291 296 292 292 293 287 282 288 289 292 293 291 293 298 300 301 301 301 301 302 303 303 304 306
299 294 297 296 297 303 303 301 298 297 298 296 291 291 284 289 292 293 293 293 290 287 292 296 290 289 290 292 294 294 295 295 294 296 297 299 299 298 299 301 304 304 304 307
287 283 288 292 299 296 295 292 291 287 286 289 290 290 288 290 284 285 294 287 286 283 285 287 288 284 290 295 296 297 296 296 295 296 299 301 301 300 298 300 301 301 303 304
289 290 294 293 292 287 285 288 292 289 285 288 287 289 288 289 290 289 289 285 285 282 287 285 284 288 293 295 296 296 296 295 296 297 297 299 301 301 300 299 299 300 301 304
291 292 290 290 289 283 283 279 283 288 294 295 296 293 293 292 292 290 285 282 281 286 278 280 284 290 295 297 297 297 296 296 296 297 297 298 300 301 299 299 301 300 300 302
286 285 281 283 281 283 282 283 288 295 296 296 296 296 294 294 290 287 283 285 283 276 275 278 285 290 294 296 297 296 294 294 295 296 296 296 296 297 298 297 299 298 297 299
283 285 280 282 286 286 290 293 292 295 294 293 293 295 295 292 289 287 283 281 274 276 279 282 287 291 294 295 297 296 295 295 295 296 295 295 295 294 295 296 296 297 296 295
285 284 282 285 284 284 285 286 286 289 290 291 294 292 289 289 289 283 282 276 273 278 280 287 290 293 294 296 298 296 297 296 296 295 294 294 294 293 293 294 294 294 294 293
285 283 285 284 283 284 284 286 286 288 286 285 290 288 287 291 286 284 283 281 281 284 287 288 291 294 295 296 296 297 298 297 296 295 295 294 294 294 292 291 292 293 293 293
Wind_Speed
21 22 23 25 23 24 6 3 2 3 3 5 1 1 2 5 5 2 6 3 5 5 5 5 4 4 2 1 3 5 3 1 3 6 7 3 1 3 1 4 7 7 4 10
17 19 20 24 22 21 4 3 3 4 4 3 3 5 4 4 4 5 4 4 4 2 3 5 4 5 5 5 2 2 2 2 3 7 1 3 2 2 4 1 0 8 8 8
16 17 18 20 21 20 2 2 5 5 5 1 2 5 4 4 5 5 4 6 5 5 5 7 7 9 8 5 4 16 4 3 5 6 3 2 2 6 7 5 4 7 21 14
16 16 16 17 18 20 3 4 1 1 5 4 4 4 4 6 7 3 3 4 2 8 7 12 12 10 4 9 10 4 4 5 6 10 13 11 10 12 13 13 13 11 15 15
16 16 15 14 14 14 5 2 3 3 4 6 4 3 3 6 10 5 7 5 14 13 9 12 21 20 14 6 6 4 3 3 2 11 12 12 14 14 16 18 20 23 19 21
16 15 14 13 10 5 1 0 1 2 4 4 3 4 4 10 14 8 11 14 17 13 15 12 18 17 19 9 5 2 3 2 1 6 5 7 9 18 18 20 21 17 23 10
15 14 14 13 10 1 1 2 1 2 4 2 4 8 14 14 11 9 13 13 10 7 15 16 14 12 15 12 17 15 5 5 2 5 2 6 7 1 7 16 21 20 14 8
15 15 15 14 12 8 2 1 2 2 4 5 10 7 4 10 11 9 11 13 11 8 6 5 6 4 1 4 8 14 15 7 3 4 4 10 6 7 7 7 6 8 5 6
16 17 17 16 13 10 2 2 3 2 3 4 5 12 10 6 4 5 7 7 5 5 4 3 4 3 4 4 6 2 13 12 6 3 5 5 3 5 10 10 8 6 6 6
15 17 17 16 15 12 4 2 4 2 4 5 4 4 6 4 4 5 6 7 7 3 4 4 4 3 3 4 6 5 3 2 12 11 5 2 1 11 9 7 3 14 7 9
16 16 17 16 15 14 5 2 5 3 4 7 10 6 5 6 4 3 5 7 4 4 6 4 3 3 3 4 4 6 3 3 2 2 5 2 4 7 4 7 15 15 10 8
17 17 16 17 17 15 9 3 2 4 4 7 14 19 21 23 19 7 3 3 3 3 2 2 2 3 3 4 3 4 3 2 4 2 3 10 11 10 11 13 16 7 11 12
17 17 16 15 16 15 10 3 3 2 3 8 3 7 7 7 17 15 4 3 3 2 3 1 2 4 2 3 3 4 4 1 4 7 3 7 5 5 9 10 14 11 12 16
20 19 17 16 14 14 12 3 1 2 2 4 8 2 8 5 7 15 18 0 2 2 0 2 3 3 3 3 4 3 5 5 5 6 9 16 4 12 10 12 12 13 16 14
20 19 18 17 15 13 9 7 6 7 3 4 7 11 5 4 6 10 15 8 3 2 1 3 3 3 2 3 2 4 3 4 3 7 13 11 14 15 13 12 12 15 18 22
22 22 22 19 14 10 4 3 1 5 5 2 5 5 4 5 3 7 10 6 2 2 2 3 4 4 2 3 3 7 5 5 4 6 11 15 15 12 5 12 13 14 18 16
25 24 23 20 12 3 4 2 2 5 4 3 4 5 3 0 2 2 3 3 3 3 2 3 3 3 3 2 3 6 7 7 7 7 11 9 9 10 11 13 13 15 14 12
25 27 23 17 10 6 4 6 13 7 3 3 3 5 5 3 2 2 3 3 3 3 2 2 3 3 1 4 7 7 6 8 6 13 13 11 12 10 9 10 12 16 14 13
28 24 4 3 2 3 2 9 2 6 3 3 3 2 5 3 3 2 2 2 3 1 3 3 3 1 5 7 4 6 5 3 5 12 12 12 12 9 8 8 12 14 16 16
20 5 2 1 1 13 7 2 3 4 5 5 4 2 4 1 2 1 1 0 1 2 4 1 2 4 5 6 5 5 4 6 6 5 12 9 10 9 11 10 10 11 13 12
5 5 3 4 12 2 2 3 3 2 3 4 4 5 5 2 3 3 2 1 1 2 3 1 2 4 4 0 2 2 4 5 7 3 6 6 6 8 9 12 12 11 13 14
5 6 6 4 2 2 2 4 4 5 5 3 3 4 5 4 2 1 2 2 1 5 2 2 3 5 3 2 3 3 5 5 6 4 6 8 9 10 8 7 10 11 13 13
2 3 4 3 2 4 6 6 4 3 3 3 1 3 3 2 1 2 1 1 5 2 3 4 6 3 3 3 1 2 2 6 5 5 6 6 9 10 11 9 10 10 12 14
2 3 5 6 5 7 6 5 3 2 3 4 4 4 4 3 3 2 3 3 3 3 1 6 4 5 4 4 1 1 3 3 4 5 6 8 8 9 9 9 9 11 14 13
4 3 7 6 4 3 3 4 3 3 2 2 3 1 1 1 3 3 2 2 3 6 6 5 4 4 5 4 4 5 2 2 3 3 5 6 6 6 7 9 8 9 13 13
4 6 5 4 1 3 2 2 4 3 2 3 1 2 3 4 2 3 6 7 7 6 5 4 2 4 6 4 5 5 4 3 4 5 4 5 5 6 6 8 9 10 12 12
5 5 4 4 4 6 4 3 4 2 2 3 2 5 7 2 2 2 4 6 5 5 4 4 6 6 6 5 4 4 6 6 5 3 5 4 4 6 7 11 10 8 9 12
Wind_Direction
346 350 350 350 349 344 11 10 42 308 15 47 31 23 263 286 282 326 266 238 239 253 305 290 282 275 262 80 14 339 351 82 269 257 266 336 93 266 266 174 243 249 138 269
342 346 345 350 350 357 327 10 296 318 74 73 326 304 289 270 302 315 298 283 267 333 283 308 280 283 337 314 199 295 282 278 309 319 18 63 115 248 227 257 61 235 234 240
337 345 343 343 344 354 341 1 350 332 36 40 73 324 300 298 292 274 316 275 275 345 268 223 270 282 308 2 303 275 223 231 213 202 310 119 269 291 289 214 228 265 243 269
333 338 343 346 345 346 80 23 323 358 307 326 324 264 288 285 327 234 281 295 287 310 288 301 271 258 259 286 273 298 180 258 234 256 267 279 261 265 263 259 255 249 272 268
329 331 336 346 351 350 69 54 11 3 298 287 265 281 248 279 321 308 291 252 296 296 265 264 282 284 278 233 301 189 199 244 260 286 261 256 264 261 258 254 255 259 260 267
320 329 332 338 355 13 64 215 217 152 256 294 334 252 289 315 314 276 264 290 299 295 283 271 274 268 265 244 212 197 208 247 312 265 298 342 285 239 241 243 237 239 239 240
321 321 328 330 335 1 239 236 163 260 274 253 255 295 302 298 311 284 282 291 282 280 313 299 267 246 252 241 237 224 205 174 192 279 338 247 247 179 301 258 243 227 252 224
330 335 332 324 320 326 208 206 199 231 275 266 293 289 290 302 287 279 283 279 275 322 313 335 334 346 173 267 217 206 213 202 229 239 216 277 321 12 5 340 306 244 227 248
339 335 327 321 316 315 264 221 188 205 280 241 298 299 283 278 294 290 263 321 312 7 27 355 352 330 325 321 338 190 203 211 201 191 235 253 63 337 323 304 259 38 347 322
329 325 323 320 316 308 293 257 190 221 263 254 212 265 302 284 280 280 297 340 327 35 14 8 351 314 324 325 316 327 91 199 229 239 261 260 356 320 314 227 356 319 335 321
320 319 317 322 316 315 315 258 193 222 245 274 257 259 218 265 224 248 333 331 332 353 29 343 348 294 327 299 298 320 313 296 272 247 237 313 327 330 297 310 290 296 327 314
322 320 319 316 316 313 308 257 214 215 241 268 294 273 259 254 249 283 256 298 311 286 36 307 316 307 294 292 301 330 298 171 297 211 271 268 293 216 239 271 303 307 318 309
322 319 317 312 308 309 313 260 238 209 263 278 294 261 250 219 222 214 218 228 211 255 172 245 272 276 275 303 300 298 277 220 261 303 263 314 340 311 255 302 296 305 308 316
319 316 311 306 303 305 311 271 280 207 287 280 281 294 277 243 179 190 207 190 68 110 22 252 253 260 206 263 266 259 234 331 295 271 292 321 271 324 325 320 321 329 325 317
318 314 309 306 305 304 291 261 233 208 210 287 288 301 263 311 219 196 195 192 156 151 226 232 250 258 261 228 261 259 224 264 327 314 315 311 301 316 328 320 340 332 323 313
318 319 317 311 298 298 289 300 126 190 176 272 295 283 295 358 70 137 164 184 164 190 208 234 262 262 242 280 263 263 260 283 228 282 308 305 297 300 324 321 321 315 310 312
311 311 306 297 272 216 225 239 56 130 128 247 271 297 283 203 137 189 144 157 200 199 241 225 239 280 218 252 243 276 311 298 320 289 323 313 321 322 326 314 319 317 308 284
313 312 307 287 229 210 245 245 241 204 237 233 276 277 333 193 244 242 161 193 186 204 246 235 221 294 262 263 253 288 301 313 339 331 336 312 310 321 328 313 318 329 340 1
318 316 314 77 127 173 213 314 269 173 246 273 193 207 268 330 259 205 207 196 198 227 234 242 158 207 233 232 251 289 307 340 298 325 331 345 350 340 331 312 324 344 353 351
328 358 313 192 25 315 308 171 204 189 200 214 239 149 258 98 290 276 202 251 235 219 234 252 229 257 249 250 233 244 339 350 357 331 336 348 346 357 346 353 14 1 348 343
14 8 333 307 311 356 237 229 210 168 260 240 241 213 226 250 197 234 186 208 223 285 271 225 254 266 257 1 328 355 31 19 335 317 307 343 350 355 347 2 9 15 1 3
254 273 281 269 302 305 237 216 175 195 233 206 194 218 195 257 170 171 190 203 121 249 329 43 276 255 253 284 249 7 10 2 327 29 14 351 6 5 358 3 11 19 14 8
315 199 242 223 227 234 219 211 217 212 184 160 0 283 221 199 173 224 123 157 231 20 38 236 231 264 291 216 228 67 7 339 330 5 13 22 16 19 15 13 28 29 31 19
273 249 256 207 217 225 207 195 205 201 203 230 247 213 206 145 181 170 171 225 72 21 319 241 249 219 223 208 159 92 299 337 23 39 24 13 21 19 26 13 22 46 36 22
246 240 240 237 239 270 276 271 287 266 251 341 318 207 172 138 270 209 133 101 263 207 232 235 242 221 179 200 203 218 253 41 13 12 56 34 16 27 29 26 18 47 59 38
232 232 257 252 341 295 324 303 274 283 290 299 205 183 220 213 213 192 211 133 221 246 224 237 220 191 201 207 185 202 145 154 142 115 62 37 46 29 42 54 40 35 61 59
237 247 224 246 256 243 249 222 244 242 339 252 177 198 219 159 202 232 206 201 225 221 237 220 214 200 204 185 193 170 150 149 148 111 83 73 51 40 58 54 51 48 52 62